This is the latest recevied weather packets stored in our database for station/object K0SDS. If no packets are shown the sender has not sent any weather packets the latest 10 day(s).
| Time | Temp. | Humidity | Pressure | Rain* | Wind** | Luminosity | Snow |
|---|---|---|---|---|---|---|---|
| 1778032962 | 10.56° C | 67% | 1012.4 hPa | 0 mm | - | 0 W/m² | - |
| 1778032659 | 10.56° C | 68% | 1012.3 hPa | 0 mm | - | 0 W/m² | - |
| 1778032356 | 10.56° C | 67% | 1012.1 hPa | 0 mm | - | 0 W/m² | - |
| 1778032053 | 10.56° C | 72% | 1012.2 hPa | 0 mm | - | 0 W/m² | - |
| 1778031749 | 10.56° C | 72% | 1012.1 hPa | 0 mm | - | 0 W/m² | - |
| 1778031447 | 10.56° C | 78% | 1012.2 hPa | 0 mm | - | 0 W/m² | - |
| 1778031144 | 10.56° C | 79% | 1012 hPa | 0 mm | - | 0 W/m² | - |
| 1778030840 | 10.56° C | 80% | 1012.2 hPa | 0 mm | - | 0 W/m² | - |
| 1778030537 | 10.56° C | 78% | 1011.9 hPa | 0 mm | - | 0 W/m² | - |
| 1778030234 | 10.56° C | 78% | 1012.1 hPa | 0 mm | - | 0 W/m² | - |
| 1778029930 | 10.56° C | 76% | 1012 hPa | 0 mm | - | 0 W/m² | - |
| 1778029629 | 11.11° C | 76% | 1011.9 hPa | 0 mm | - | 0 W/m² | - |
| 1778029326 | 11.11° C | 76% | 1011.9 hPa | 0 mm | - | 2 W/m² | - |
| 1778029023 | 11.11° C | 72% | 1011.7 hPa | 0 mm | - | 3 W/m² | - |
| 1778028719 | 11.11° C | 67% | 1011.6 hPa | 0 mm | - | 5 W/m² | - |
| 1778028415 | 11.67° C | 67% | 1011.5 hPa | 0 mm | - | 9 W/m² | - |
| 1778028113 | 11.67° C | 66% | 1011.4 hPa | 0 mm | - | 11 W/m² | - |
| 1778027809 | 11.67° C | 66% | 1011.2 hPa | 0 mm | - | 14 W/m² | - |
| 1778027505 | 11.67° C | 64% | 1011.4 hPa | 0 mm | - | 18 W/m² | - |
| 1778027201 | 12.22° C | 62% | 1011.4 hPa | 0 mm | - | 18 W/m² | - |
| 1778026898 | 12.22° C | 60% | 1011.5 hPa | 0 mm | - | 19 W/m² | - |
| 1778026594 | 12.22° C | 63% | 1011.6 hPa | 0 mm | - | 27 W/m² | - |
| 1778026292 | 12.22° C | 62% | 1011.2 hPa | 0 mm | - | 29 W/m² | - |
| 1778025988 | 12.78° C | 65% | 1011.5 hPa | 0 mm | - | 24 W/m² | - |
| 1778025685 | 12.78° C | 66% | 1011.3 hPa | 0 mm | - | 45 W/m² | - |
* Rain latest hour (hover to see other rain measurements)
** Current wind speed in m/s (hover to see current wind gust speed)